Year,Month,Day,Hour,Minute,Value (Times are PST for temperature in C)
2018,05,27,00,00,9.00
2018,05,27,00,01,8.90
2018,05,27,00,02,8.90
2018,05,27,00,03,8.90
2018,05,27,00,04,8.80
2018,05,27,00,05,8.80
2018,05,27,00,06,8.80
2018,05,27,00,07,8.80
2018,05,27,00,08,8.80
2018,05,27,00,09,8.80
2018,05,27,00,10,8.70
2018,05,27,00,11,8.70
2018,05,27,00,12,8.70
2018,05,27,00,13,8.70
2018,05,27,00,14,8.70
2018,05,27,00,15,8.60
2018,05,27,00,16,8.60
2018,05,27,00,17,8.60
2018,05,27,00,18,8.60
2018,05,27,00,19,8.60
2018,05,27,00,20,8.50
2018,05,27,00,21,8.50
2018,05,27,00,22,8.50
2018,05,27,00,23,8.50
2018,05,27,00,24,8.40
2018,05,27,00,25,8.40
2018,05,27,00,26,8.40
2018,05,27,00,27,8.40
2018,05,27,00,28,8.40
2018,05,27,00,29,8.40
2018,05,27,00,30,8.40
2018,05,27,00,31,8.40
2018,05,27,00,32,8.40
2018,05,27,00,33,8.30
2018,05,27,00,34,8.30
2018,05,27,00,35,8.30
2018,05,27,00,36,8.30
2018,05,27,00,37,8.30
2018,05,27,00,38,8.30
2018,05,27,00,39,8.30
2018,05,27,00,40,8.30
2018,05,27,00,41,8.30
2018,05,27,00,42,8.30
2018,05,27,00,43,8.30
2018,05,27,00,44,8.20
2018,05,27,00,45,8.20
2018,05,27,00,46,8.20
2018,05,27,00,47,8.10
2018,05,27,00,48,8.10
2018,05,27,00,49,8.10
2018,05,27,00,50,8.00
2018,05,27,00,51,8.00
2018,05,27,00,52,7.90
2018,05,27,00,53,7.90
2018,05,27,00,54,7.90
2018,05,27,00,55,7.90
2018,05,27,00,56,7.80
2018,05,27,00,57,7.80
2018,05,27,00,58,7.80
2018,05,27,00,59,7.80
2018,05,27,01,00,7.80
2018,05,27,01,01,7.80
2018,05,27,01,02,7.80
2018,05,27,01,03,7.80
2018,05,27,01,04,7.80
2018,05,27,01,05,7.80
2018,05,27,01,06,7.80
2018,05,27,01,07,7.80
2018,05,27,01,08,7.80
2018,05,27,01,09,7.80
2018,05,27,01,10,7.80
2018,05,27,01,11,7.80
2018,05,27,01,12,7.80
2018,05,27,01,13,7.80
2018,05,27,01,14,7.80
2018,05,27,01,15,7.80
2018,05,27,01,16,7.80
2018,05,27,01,17,7.70
2018,05,27,01,18,7.70
2018,05,27,01,19,7.70
2018,05,27,01,20,7.70
2018,05,27,01,21,7.70
2018,05,27,01,22,7.70
2018,05,27,01,23,7.70
2018,05,27,01,24,7.70
2018,05,27,01,25,7.70
2018,05,27,01,26,7.60
2018,05,27,01,27,7.60
2018,05,27,01,28,7.60
2018,05,27,01,29,7.60
2018,05,27,01,30,7.60
2018,05,27,01,31,7.60
2018,05,27,01,32,7.60
2018,05,27,01,33,7.60
2018,05,27,01,34,7.60
2018,05,27,01,35,7.60
2018,05,27,01,36,7.60
2018,05,27,01,37,7.60
2018,05,27,01,38,7.60
2018,05,27,01,39,7.60
2018,05,27,01,40,7.60
2018,05,27,01,41,7.60
2018,05,27,01,42,7.60
2018,05,27,01,43,7.60
2018,05,27,01,44,7.60
2018,05,27,01,45,7.60
2018,05,27,01,46,7.60
2018,05,27,01,47,7.60
2018,05,27,01,48,7.50
2018,05,27,01,49,7.50
2018,05,27,01,50,7.50
2018,05,27,01,51,7.50
2018,05,27,01,52,7.50
2018,05,27,01,53,7.50
2018,05,27,01,54,7.50
2018,05,27,01,55,7.40
2018,05,27,01,56,7.40
2018,05,27,01,57,7.40
2018,05,27,01,58,7.40
2018,05,27,01,59,7.40
2018,05,27,02,00,7.40
2018,05,27,02,01,7.40
2018,05,27,02,02,7.40
2018,05,27,02,03,7.40
2018,05,27,02,04,7.30
2018,05,27,02,05,7.40
2018,05,27,02,06,7.40
2018,05,27,02,07,7.30
2018,05,27,02,08,7.30
2018,05,27,02,09,7.30
2018,05,27,02,10,7.30
2018,05,27,02,11,7.30
2018,05,27,02,12,7.30
2018,05,27,02,13,7.30
2018,05,27,02,14,7.30
2018,05,27,02,15,7.20
2018,05,27,02,16,7.20
2018,05,27,02,17,7.20
2018,05,27,02,18,7.20
2018,05,27,02,19,7.20
2018,05,27,02,20,7.10
2018,05,27,02,21,7.10
2018,05,27,02,22,7.10
2018,05,27,02,23,7.10
2018,05,27,02,24,7.10
2018,05,27,02,25,7.10
2018,05,27,02,26,7.10
2018,05,27,02,27,7.20
2018,05,27,02,28,7.20
2018,05,27,02,29,7.20
2018,05,27,02,30,7.20
2018,05,27,02,31,7.20
2018,05,27,02,32,7.20
2018,05,27,02,33,7.20
2018,05,27,02,34,7.20
2018,05,27,02,35,7.20
2018,05,27,02,36,7.20
2018,05,27,02,37,7.20
2018,05,27,02,38,7.20
2018,05,27,02,39,7.20
2018,05,27,02,40,7.30
2018,05,27,02,41,7.30
2018,05,27,02,42,7.30
2018,05,27,02,43,7.30
2018,05,27,02,44,7.30
2018,05,27,02,45,7.30
2018,05,27,02,46,7.30
2018,05,27,02,47,7.30
2018,05,27,02,48,7.30
2018,05,27,02,49,7.30
2018,05,27,02,50,7.30
2018,05,27,02,51,7.30
2018,05,27,02,52,7.30
2018,05,27,02,53,7.30
2018,05,27,02,54,7.40
2018,05,27,02,55,7.40
2018,05,27,02,56,7.40
2018,05,27,02,57,7.40
2018,05,27,02,58,7.40
2018,05,27,02,59,7.50
2018,05,27,03,00,7.50
2018,05,27,03,01,7.50
2018,05,27,03,02,7.50
2018,05,27,03,03,7.60
2018,05,27,03,04,7.60
2018,05,27,03,05,7.60
2018,05,27,03,06,7.60
2018,05,27,03,07,7.60
2018,05,27,03,08,7.60
2018,05,27,03,09,7.60
2018,05,27,03,10,7.60
2018,05,27,03,11,7.60
2018,05,27,03,12,7.60
2018,05,27,03,13,7.50
2018,05,27,03,14,7.50
2018,05,27,03,15,7.50
2018,05,27,03,16,7.50
2018,05,27,03,17,7.50
2018,05,27,03,18,7.40
2018,05,27,03,19,7.40
2018,05,27,03,20,7.40
2018,05,27,03,21,7.40
2018,05,27,03,22,7.40
2018,05,27,03,23,7.40
2018,05,27,03,24,7.40
2018,05,27,03,25,7.40
2018,05,27,03,26,7.40
2018,05,27,03,27,7.30
2018,05,27,03,28,7.30
2018,05,27,03,29,7.30
2018,05,27,03,30,7.30
2018,05,27,03,31,7.30
2018,05,27,03,32,7.30
2018,05,27,03,33,7.30
2018,05,27,03,34,7.30
2018,05,27,03,35,7.20
2018,05,27,03,36,7.20
2018,05,27,03,37,7.20
2018,05,27,03,38,7.20
2018,05,27,03,39,7.20
2018,05,27,03,40,7.20
2018,05,27,03,41,7.10
2018,05,27,03,42,7.10
2018,05,27,03,43,7.10
2018,05,27,03,44,7.10
2018,05,27,03,45,7.10
2018,05,27,03,46,7.10
2018,05,27,03,47,7.10
2018,05,27,03,48,7.10
2018,05,27,03,49,7.10
2018,05,27,03,50,7.10
2018,05,27,03,51,7.10
2018,05,27,03,52,7.10
2018,05,27,03,53,7.10
2018,05,27,03,54,7.10
2018,05,27,03,55,7.10
2018,05,27,03,56,7.10
2018,05,27,03,57,7.10
2018,05,27,03,58,7.10
2018,05,27,03,59,7.10
2018,05,27,04,00,7.10
2018,05,27,04,01,7.10
2018,05,27,04,02,7.10
2018,05,27,04,03,7.10
2018,05,27,04,04,7.10
2018,05,27,04,05,7.10
2018,05,27,04,06,7.10
2018,05,27,04,07,7.10
2018,05,27,04,08,7.10
2018,05,27,04,09,7.00
2018,05,27,04,10,7.00
2018,05,27,04,11,7.00
2018,05,27,04,12,7.00
2018,05,27,04,13,7.00
2018,05,27,04,14,7.00
2018,05,27,04,15,7.00
2018,05,27,04,16,7.00
2018,05,27,04,17,7.10
2018,05,27,04,18,7.10
2018,05,27,04,19,7.10
2018,05,27,04,20,7.10
2018,05,27,04,21,7.10
2018,05,27,04,22,7.10
2018,05,27,04,23,7.10
2018,05,27,04,24,7.10
2018,05,27,04,25,7.10
2018,05,27,04,26,7.10
2018,05,27,04,27,7.10
2018,05,27,04,28,7.10
2018,05,27,04,29,7.10
2018,05,27,04,30,7.10
2018,05,27,04,31,7.10
2018,05,27,04,32,7.10
2018,05,27,04,33,7.10
2018,05,27,04,34,7.20
2018,05,27,04,35,7.20
2018,05,27,04,36,7.20
2018,05,27,04,37,7.20
2018,05,27,04,38,7.20
2018,05,27,04,39,7.20
2018,05,27,04,40,7.20
2018,05,27,04,41,7.20
2018,05,27,04,42,7.30
2018,05,27,04,43,7.30
2018,05,27,04,44,7.30
2018,05,27,04,45,7.30
2018,05,27,04,46,7.30
2018,05,27,04,47,7.30
2018,05,27,04,48,7.30
2018,05,27,04,49,7.20
2018,05,27,04,50,7.20
2018,05,27,04,51,7.20
2018,05,27,04,52,7.20
2018,05,27,04,53,7.20
2018,05,27,04,54,7.20
2018,05,27,04,55,7.20
2018,05,27,04,56,7.20
2018,05,27,04,57,7.10
2018,05,27,04,58,7.10
2018,05,27,04,59,7.10
2018,05,27,05,00,7.10
2018,05,27,05,01,7.10
2018,05,27,05,02,7.10
2018,05,27,05,03,7.00
2018,05,27,05,04,7.00
2018,05,27,05,05,7.00
2018,05,27,05,06,7.00
2018,05,27,05,07,7.00
2018,05,27,05,08,6.90
2018,05,27,05,09,6.90
2018,05,27,05,10,6.90
2018,05,27,05,11,6.90
2018,05,27,05,12,6.90
2018,05,27,05,13,6.90
2018,05,27,05,14,6.80
2018,05,27,05,15,6.80
2018,05,27,05,16,6.80
2018,05,27,05,17,6.80
2018,05,27,05,18,6.80
2018,05,27,05,19,6.80
2018,05,27,05,20,6.80
2018,05,27,05,21,6.80
2018,05,27,05,22,6.70
2018,05,27,05,23,6.70
2018,05,27,05,24,6.70
2018,05,27,05,25,6.70
2018,05,27,05,26,6.70
2018,05,27,05,27,6.70
2018,05,27,05,28,6.70
2018,05,27,05,29,6.70
2018,05,27,05,30,6.70
2018,05,27,05,31,6.80
2018,05,27,05,32,6.80
2018,05,27,05,33,6.70
2018,05,27,05,34,6.70
2018,05,27,05,35,6.70
2018,05,27,05,36,6.70
2018,05,27,05,37,6.70
2018,05,27,05,38,6.70
2018,05,27,05,39,6.70
2018,05,27,05,40,6.70
2018,05,27,05,41,6.70
2018,05,27,05,42,6.70
2018,05,27,05,43,6.70
2018,05,27,05,44,6.70
2018,05,27,05,45,6.70
2018,05,27,05,46,6.70
2018,05,27,05,47,6.70
2018,05,27,05,48,6.70
2018,05,27,05,49,6.70
2018,05,27,05,50,6.80
2018,05,27,05,51,6.80
2018,05,27,05,52,6.80
2018,05,27,05,53,6.80
2018,05,27,05,54,6.80
2018,05,27,05,55,6.80
2018,05,27,05,56,6.80
2018,05,27,05,57,6.80
2018,05,27,05,58,6.80
2018,05,27,05,59,6.80
2018,05,27,06,00,6.80
2018,05,27,06,01,6.80
2018,05,27,06,02,6.80
2018,05,27,06,03,6.80
2018,05,27,06,04,6.90
2018,05,27,06,05,6.90
2018,05,27,06,06,6.90
2018,05,27,06,07,6.90
2018,05,27,06,08,7.00
2018,05,27,06,09,7.00
2018,05,27,06,10,7.00
2018,05,27,06,11,7.00
2018,05,27,06,12,7.10
2018,05,27,06,13,7.10
2018,05,27,06,14,7.10
2018,05,27,06,15,7.10
2018,05,27,06,16,7.10
2018,05,27,06,17,7.10
2018,05,27,06,18,7.20
2018,05,27,06,19,7.20
2018,05,27,06,20,7.20
2018,05,27,06,21,7.20
2018,05,27,06,22,7.30
2018,05,27,06,23,7.30
2018,05,27,06,24,7.30
2018,05,27,06,25,7.40
2018,05,27,06,26,7.40
2018,05,27,06,27,7.40
2018,05,27,06,28,7.40
2018,05,27,06,29,7.40
2018,05,27,06,30,7.60
2018,05,27,06,31,7.60
2018,05,27,06,32,7.70
2018,05,27,06,33,7.70
2018,05,27,06,34,7.80
2018,05,27,06,35,7.80
2018,05,27,06,36,7.90
2018,05,27,06,37,8.00
2018,05,27,06,38,8.10
2018,05,27,06,39,8.20
2018,05,27,06,40,8.30
2018,05,27,06,41,8.40
2018,05,27,06,42,8.50
2018,05,27,06,43,8.50
2018,05,27,06,44,8.60
2018,05,27,06,45,8.70
2018,05,27,06,46,8.70
2018,05,27,06,47,8.80
2018,05,27,06,48,8.80
2018,05,27,06,49,8.90
2018,05,27,06,50,9.00
2018,05,27,06,51,9.10
2018,05,27,06,52,9.10
2018,05,27,06,53,9.20
2018,05,27,06,54,9.20
2018,05,27,06,55,9.30
2018,05,27,06,56,9.30
2018,05,27,06,57,9.40
2018,05,27,06,58,9.40
2018,05,27,06,59,9.50
2018,05,27,07,00,9.50
2018,05,27,07,01,9.60
2018,05,27,07,02,9.70
2018,05,27,07,03,9.70
2018,05,27,07,04,9.80
2018,05,27,07,05,9.80
2018,05,27,07,06,9.90
2018,05,27,07,07,9.90
2018,05,27,07,08,10.00
2018,05,27,07,09,10.10
2018,05,27,07,10,10.10
2018,05,27,07,11,10.20
2018,05,27,07,12,10.20
2018,05,27,07,13,10.30
2018,05,27,07,14,10.30
2018,05,27,07,15,10.40
2018,05,27,07,16,10.40
2018,05,27,07,17,10.40
2018,05,27,07,18,10.50
2018,05,27,07,19,10.60
2018,05,27,07,20,10.60
2018,05,27,07,21,10.70
2018,05,27,07,22,10.70
2018,05,27,07,23,10.70
2018,05,27,07,24,10.80
2018,05,27,07,25,10.80
2018,05,27,07,26,10.80
2018,05,27,07,27,10.90
2018,05,27,07,28,10.90
2018,05,27,07,29,10.90
2018,05,27,07,30,10.90
2018,05,27,07,31,11.00
2018,05,27,07,32,11.00
2018,05,27,07,33,11.10
2018,05,27,07,34,11.10
2018,05,27,07,35,11.20
2018,05,27,07,36,11.20
2018,05,27,07,37,11.20
2018,05,27,07,38,11.30
2018,05,27,07,39,11.30
2018,05,27,07,40,11.30
2018,05,27,07,41,11.30
2018,05,27,07,42,11.30
2018,05,27,07,43,11.30
2018,05,27,07,44,11.30
2018,05,27,07,45,11.40
2018,05,27,07,46,11.40
2018,05,27,07,47,11.40
2018,05,27,07,48,11.50
2018,05,27,07,49,11.50
2018,05,27,07,50,11.60
2018,05,27,07,51,11.60
2018,05,27,07,52,11.70
2018,05,27,07,53,11.80
2018,05,27,07,54,11.90
2018,05,27,07,55,11.90
2018,05,27,07,56,12.00
2018,05,27,07,57,12.10
2018,05,27,07,58,12.10
2018,05,27,07,59,12.10
2018,05,27,08,00,12.20
2018,05,27,08,01,12.20
2018,05,27,08,02,12.20
2018,05,27,08,03,12.20
2018,05,27,08,04,12.10
2018,05,27,08,05,12.10
2018,05,27,08,06,12.10
2018,05,27,08,07,12.10
2018,05,27,08,08,12.10
2018,05,27,08,09,12.20
2018,05,27,08,10,12.20
2018,05,27,08,11,12.20
2018,05,27,08,12,12.20
2018,05,27,08,13,12.20
2018,05,27,08,14,12.20
2018,05,27,08,15,12.20
2018,05,27,08,16,12.30
2018,05,27,08,17,12.30
2018,05,27,08,18,12.30
2018,05,27,08,19,12.30
2018,05,27,08,20,12.30
2018,05,27,08,21,12.40
2018,05,27,08,22,12.40
2018,05,27,08,23,12.50
2018,05,27,08,24,12.50
2018,05,27,08,25,12.50
2018,05,27,08,26,12.50
2018,05,27,08,27,12.50
2018,05,27,08,28,12.50
2018,05,27,08,29,12.60
2018,05,27,08,30,12.60
2018,05,27,08,31,12.60
2018,05,27,08,32,12.60
2018,05,27,08,33,12.60
2018,05,27,08,34,12.60
2018,05,27,08,35,12.60
2018,05,27,08,36,12.60
2018,05,27,08,37,12.60
2018,05,27,08,38,12.60
2018,05,27,08,39,12.60
2018,05,27,08,40,12.60
2018,05,27,08,41,12.60
2018,05,27,08,42,12.60
2018,05,27,08,43,12.70
2018,05,27,08,44,12.70
2018,05,27,08,45,12.70
2018,05,27,08,46,12.60
2018,05,27,08,47,12.60
2018,05,27,08,48,12.60
2018,05,27,08,49,12.60
2018,05,27,08,50,12.60
2018,05,27,08,51,12.50
2018,05,27,08,52,12.60
2018,05,27,08,53,12.60
2018,05,27,08,54,12.60
2018,05,27,08,55,12.60
2018,05,27,08,56,12.70
2018,05,27,08,57,12.70
2018,05,27,08,58,12.70
2018,05,27,08,59,12.70
2018,05,27,09,00,12.70
2018,05,27,09,01,12.70
2018,05,27,09,02,12.70
2018,05,27,09,03,12.60
2018,05,27,09,04,12.60
2018,05,27,09,05,12.70
2018,05,27,09,06,12.70
2018,05,27,09,07,12.70
2018,05,27,09,08,12.80
2018,05,27,09,09,12.80
2018,05,27,09,10,12.90
2018,05,27,09,11,12.90
2018,05,27,09,12,12.90
2018,05,27,09,13,13.00
2018,05,27,09,14,13.00
2018,05,27,09,15,13.00
2018,05,27,09,16,13.10
2018,05,27,09,17,13.10
2018,05,27,09,18,13.00
2018,05,27,09,19,13.00
2018,05,27,09,20,13.00
2018,05,27,09,21,13.00
2018,05,27,09,22,13.00
2018,05,27,09,23,13.00
2018,05,27,09,24,12.90
2018,05,27,09,25,12.80
2018,05,27,09,26,12.80
2018,05,27,09,27,12.80
2018,05,27,09,28,12.80
2018,05,27,09,29,12.90
2018,05,27,09,30,12.80
2018,05,27,09,31,12.80
2018,05,27,09,32,12.80
2018,05,27,09,33,12.80
2018,05,27,09,34,12.80
2018,05,27,09,35,12.80
2018,05,27,09,36,12.80
2018,05,27,09,37,12.90
2018,05,27,09,38,13.00
2018,05,27,09,39,13.00
2018,05,27,09,40,13.00
2018,05,27,09,41,13.00
2018,05,27,09,42,13.00
2018,05,27,09,43,13.00
2018,05,27,09,44,13.10
2018,05,27,09,45,13.10
2018,05,27,09,46,13.10
2018,05,27,09,47,13.20
2018,05,27,09,48,13.10
2018,05,27,09,49,13.10
2018,05,27,09,50,13.10
2018,05,27,09,51,13.10
2018,05,27,09,52,13.20
2018,05,27,09,53,13.20
2018,05,27,09,54,13.20
2018,05,27,09,55,13.20
2018,05,27,09,56,13.20
2018,05,27,09,57,13.20
2018,05,27,09,58,13.20
2018,05,27,09,59,13.20
2018,05,27,10,00,13.20
2018,05,27,10,01,13.10
2018,05,27,10,02,13.10
2018,05,27,10,03,13.00
2018,05,27,10,04,13.10
2018,05,27,10,05,13.10
2018,05,27,10,06,13.10
2018,05,27,10,07,13.20
2018,05,27,10,08,13.30
2018,05,27,10,09,13.30
2018,05,27,10,10,13.40
2018,05,27,10,11,13.40
2018,05,27,10,12,13.40
2018,05,27,10,13,13.50
2018,05,27,10,14,13.50
2018,05,27,10,15,13.60
2018,05,27,10,16,13.60
2018,05,27,10,17,13.70
2018,05,27,10,18,13.70
2018,05,27,10,19,13.70
2018,05,27,10,20,13.80
2018,05,27,10,21,13.80
2018,05,27,10,22,13.70
2018,05,27,10,23,13.70
2018,05,27,10,24,13.70
2018,05,27,10,25,13.80
2018,05,27,10,26,13.80
2018,05,27,10,27,13.90
2018,05,27,10,28,13.90
2018,05,27,10,29,13.90
2018,05,27,10,30,14.00
2018,05,27,10,31,14.10
2018,05,27,10,32,14.10
2018,05,27,10,33,14.10
2018,05,27,10,34,14.10
2018,05,27,10,35,14.00
2018,05,27,10,36,14.00
2018,05,27,10,37,14.10
2018,05,27,10,38,14.20
2018,05,27,10,39,14.30
2018,05,27,10,40,14.30
2018,05,27,10,41,14.30
2018,05,27,10,42,14.30
2018,05,27,10,43,14.40
2018,05,27,10,44,14.50
2018,05,27,10,45,14.50
2018,05,27,10,46,14.60
2018,05,27,10,47,14.60
2018,05,27,10,48,14.60
2018,05,27,10,49,14.50
2018,05,27,10,50,14.60
2018,05,27,10,51,14.60
2018,05,27,10,52,14.70
2018,05,27,10,53,14.70
2018,05,27,10,54,14.80
2018,05,27,10,55,14.80
2018,05,27,10,56,14.90
2018,05,27,10,57,15.00
2018,05,27,10,58,15.10
2018,05,27,10,59,15.20
2018,05,27,11,00,15.30
2018,05,27,11,01,15.40
2018,05,27,11,02,15.50
2018,05,27,11,03,15.60
2018,05,27,11,04,15.60
2018,05,27,11,05,15.60
2018,05,27,11,06,15.50
2018,05,27,11,07,15.50
2018,05,27,11,08,15.30
2018,05,27,11,09,15.20
2018,05,27,11,10,15.20
2018,05,27,11,11,15.20
2018,05,27,11,12,15.30
2018,05,27,11,13,15.30
2018,05,27,11,14,15.20
2018,05,27,11,15,15.20
2018,05,27,11,16,15.20
2018,05,27,11,17,15.30
2018,05,27,11,18,15.20
2018,05,27,11,19,15.10
2018,05,27,11,20,15.10
2018,05,27,11,21,15.10
2018,05,27,11,22,15.10
2018,05,27,11,23,15.10
2018,05,27,11,24,15.00
2018,05,27,11,25,15.00
2018,05,27,11,26,15.00
2018,05,27,11,27,15.00
2018,05,27,11,28,15.00
2018,05,27,11,29,15.00
2018,05,27,11,30,15.10
2018,05,27,11,31,15.10
2018,05,27,11,32,15.10
2018,05,27,11,33,15.10
2018,05,27,11,34,15.20
2018,05,27,11,35,15.20
2018,05,27,11,36,15.30
2018,05,27,11,37,15.30
2018,05,27,11,38,15.30
2018,05,27,11,39,15.30
2018,05,27,11,40,15.30
2018,05,27,11,41,15.40
2018,05,27,11,42,15.40
2018,05,27,11,43,15.40
2018,05,27,11,44,15.40
2018,05,27,11,45,15.40
2018,05,27,11,46,15.40
2018,05,27,11,47,15.50
2018,05,27,11,48,15.50
2018,05,27,11,49,15.60
2018,05,27,11,50,15.60
2018,05,27,11,51,15.70
2018,05,27,11,52,15.90
2018,05,27,11,53,16.10
2018,05,27,11,54,16.30
2018,05,27,11,55,16.40
2018,05,27,11,56,16.50
2018,05,27,11,57,16.70
2018,05,27,11,58,16.80
2018,05,27,11,59,17.00
2018,05,27,12,00,17.20
2018,05,27,12,01,17.30
2018,05,27,12,02,17.50
2018,05,27,12,03,17.60
2018,05,27,12,04,17.70
2018,05,27,12,05,17.70
2018,05,27,12,06,17.70
2018,05,27,12,07,17.70
2018,05,27,12,08,17.70
2018,05,27,12,09,17.70
2018,05,27,12,10,17.70
2018,05,27,12,11,17.70
2018,05,27,12,12,17.70
2018,05,27,12,13,17.70
2018,05,27,12,14,17.80
2018,05,27,12,15,17.90
2018,05,27,12,16,18.00
2018,05,27,12,17,18.00
2018,05,27,12,18,18.00
2018,05,27,12,19,18.10
2018,05,27,12,20,18.10
2018,05,27,12,21,18.10
2018,05,27,12,22,18.10
2018,05,27,12,23,18.10
2018,05,27,12,24,18.10
2018,05,27,12,25,18.10
2018,05,27,12,26,18.10
2018,05,27,12,27,17.90
2018,05,27,12,28,17.90
2018,05,27,12,29,17.80
2018,05,27,12,30,17.80
2018,05,27,12,31,17.80
2018,05,27,12,32,17.90
2018,05,27,12,33,17.90
2018,05,27,12,34,17.90
2018,05,27,12,35,18.00
2018,05,27,12,36,18.10
2018,05,27,12,37,18.10
2018,05,27,12,38,18.10
2018,05,27,12,39,18.10
2018,05,27,12,40,18.10
2018,05,27,12,41,18.20
2018,05,27,12,42,18.30
2018,05,27,12,43,18.30
2018,05,27,12,44,18.40
2018,05,27,12,45,18.50
2018,05,27,12,46,18.50
2018,05,27,12,47,18.40
2018,05,27,12,48,18.30
2018,05,27,12,49,18.30
2018,05,27,12,50,18.30
2018,05,27,12,51,18.40
2018,05,27,12,52,18.50
2018,05,27,12,53,18.60
2018,05,27,12,54,18.70
2018,05,27,12,55,18.80
2018,05,27,12,56,18.90
2018,05,27,12,57,18.90
2018,05,27,12,58,18.80
2018,05,27,12,59,18.90
2018,05,27,13,00,18.90
2018,05,27,13,01,19.00
2018,05,27,13,02,19.10
2018,05,27,13,03,19.10
2018,05,27,13,04,19.10
2018,05,27,13,05,19.20
2018,05,27,13,06,19.20
2018,05,27,13,07,19.10
2018,05,27,13,08,19.00
2018,05,27,13,09,18.90
2018,05,27,13,10,18.90
2018,05,27,13,11,19.00
2018,05,27,13,12,19.10
2018,05,27,13,13,19.20
2018,05,27,13,14,19.30
2018,05,27,13,15,19.40
2018,05,27,13,16,19.50
2018,05,27,13,17,19.50
2018,05,27,13,18,19.30
2018,05,27,13,19,19.10
2018,05,27,13,20,19.00
2018,05,27,13,21,18.90
2018,05,27,13,22,18.70
2018,05,27,13,23,18.60
2018,05,27,13,24,18.50
2018,05,27,13,25,18.50
2018,05,27,13,26,18.50
2018,05,27,13,27,18.50
2018,05,27,13,28,18.40
2018,05,27,13,29,18.40
2018,05,27,13,30,18.30
2018,05,27,13,31,18.20
2018,05,27,13,32,18.20
2018,05,27,13,33,18.10
2018,05,27,13,34,18.10
2018,05,27,13,35,18.20
2018,05,27,13,36,18.30
2018,05,27,13,37,18.40
2018,05,27,13,38,18.40
2018,05,27,13,39,18.50
2018,05,27,13,40,18.40
2018,05,27,13,41,18.40
2018,05,27,13,42,18.30
2018,05,27,13,43,18.30
2018,05,27,13,44,18.20
2018,05,27,13,45,18.20
2018,05,27,13,46,18.30
2018,05,27,13,47,18.30
2018,05,27,13,48,18.40
2018,05,27,13,49,18.60
2018,05,27,13,50,18.70
2018,05,27,13,51,18.70
2018,05,27,13,52,18.80
2018,05,27,13,53,18.80
2018,05,27,13,54,18.90
2018,05,27,13,55,18.90
2018,05,27,13,56,19.00
2018,05,27,13,57,19.00
2018,05,27,13,58,19.10
2018,05,27,13,59,19.20
2018,05,27,14,00,19.20
2018,05,27,14,01,19.30
2018,05,27,14,02,19.40
2018,05,27,14,03,19.40
2018,05,27,14,04,19.40
2018,05,27,14,05,19.30
2018,05,27,14,06,19.40
2018,05,27,14,07,19.40
2018,05,27,14,08,19.40
2018,05,27,14,09,19.30
2018,05,27,14,10,19.30
2018,05,27,14,11,19.30
2018,05,27,14,12,19.40
2018,05,27,14,13,19.50
2018,05,27,14,14,19.60
2018,05,27,14,15,19.60
2018,05,27,14,16,19.60
2018,05,27,14,17,19.50
2018,05,27,14,18,19.40
2018,05,27,14,19,19.30
2018,05,27,14,20,19.20
2018,05,27,14,21,19.30
2018,05,27,14,22,19.40
2018,05,27,14,23,19.40
2018,05,27,14,24,19.40
2018,05,27,14,25,19.40
2018,05,27,14,26,19.40
2018,05,27,14,27,19.40
2018,05,27,14,28,19.50
2018,05,27,14,29,19.50
2018,05,27,14,30,19.60
2018,05,27,14,31,19.60
2018,05,27,14,32,19.60
2018,05,27,14,33,19.70
2018,05,27,14,34,19.80
2018,05,27,14,35,19.80
2018,05,27,14,36,19.80
2018,05,27,14,37,19.80
2018,05,27,14,38,19.80
2018,05,27,14,39,19.80
2018,05,27,14,40,19.80
2018,05,27,14,41,19.80
2018,05,27,14,42,19.80
2018,05,27,14,43,19.90
2018,05,27,14,44,19.90
2018,05,27,14,45,19.80
2018,05,27,14,46,19.90
2018,05,27,14,47,20.00
2018,05,27,14,48,20.10
2018,05,27,14,49,20.10
2018,05,27,14,50,20.10
2018,05,27,14,51,20.10
2018,05,27,14,52,20.00
2018,05,27,14,53,19.90
2018,05,27,14,54,20.00
2018,05,27,14,55,20.00
2018,05,27,14,56,20.00
2018,05,27,14,57,20.00
2018,05,27,14,58,20.00
2018,05,27,14,59,20.00
2018,05,27,15,00,19.90
2018,05,27,15,01,20.00
2018,05,27,15,02,20.10
2018,05,27,15,03,20.30
2018,05,27,15,04,20.40
2018,05,27,15,05,20.30
2018,05,27,15,06,20.30
2018,05,27,15,07,20.40
2018,05,27,15,08,20.40
2018,05,27,15,09,20.50
2018,05,27,15,10,20.50
2018,05,27,15,11,20.50
2018,05,27,15,12,20.60
2018,05,27,15,13,20.60
2018,05,27,15,14,20.50
2018,05,27,15,15,20.50
2018,05,27,15,16,20.40
2018,05,27,15,17,20.50
2018,05,27,15,18,20.40
2018,05,27,15,19,20.30
2018,05,27,15,20,20.30
2018,05,27,15,21,20.40
2018,05,27,15,22,20.40
2018,05,27,15,23,20.50
2018,05,27,15,24,20.50
2018,05,27,15,25,20.50
2018,05,27,15,26,20.50
2018,05,27,15,27,20.50
2018,05,27,15,28,20.60
2018,05,27,15,29,20.60
2018,05,27,15,30,20.50
2018,05,27,15,31,20.40
2018,05,27,15,32,20.30
2018,05,27,15,33,20.20
2018,05,27,15,34,20.20
2018,05,27,15,35,20.00
2018,05,27,15,36,19.90
2018,05,27,15,37,19.90
2018,05,27,15,38,19.90
2018,05,27,15,39,19.90
2018,05,27,15,40,19.90
2018,05,27,15,41,19.90
2018,05,27,15,42,19.90
2018,05,27,15,43,19.80
2018,05,27,15,44,19.80
2018,05,27,15,45,19.70
2018,05,27,15,46,19.70
2018,05,27,15,47,19.70
2018,05,27,15,48,19.70
2018,05,27,15,49,19.70
2018,05,27,15,50,19.70
2018,05,27,15,51,19.80
2018,05,27,15,52,19.90
2018,05,27,15,53,20.00
2018,05,27,15,54,20.10
2018,05,27,15,55,20.20
2018,05,27,15,56,20.30
2018,05,27,15,57,20.40
2018,05,27,15,58,20.60
2018,05,27,15,59,20.60
2018,05,27,16,00,20.40
2018,05,27,16,01,20.30
2018,05,27,16,02,20.20
2018,05,27,16,03,20.20
2018,05,27,16,04,20.20
2018,05,27,16,05,20.30
2018,05,27,16,06,20.20
2018,05,27,16,07,20.20
2018,05,27,16,08,20.20
2018,05,27,16,09,20.20
2018,05,27,16,10,20.20
2018,05,27,16,11,20.20
2018,05,27,16,12,20.20
2018,05,27,16,13,20.30
2018,05,27,16,14,20.40
2018,05,27,16,15,20.50
2018,05,27,16,16,20.50
2018,05,27,16,17,20.50
2018,05,27,16,18,20.40
2018,05,27,16,19,20.30
2018,05,27,16,20,20.30
2018,05,27,16,21,20.30
2018,05,27,16,22,20.30
2018,05,27,16,23,20.30
2018,05,27,16,24,20.30
2018,05,27,16,25,20.30
2018,05,27,16,26,20.10
2018,05,27,16,27,20.00
2018,05,27,16,28,19.90
2018,05,27,16,29,19.90
2018,05,27,16,30,19.90
2018,05,27,16,31,20.00
2018,05,27,16,32,20.00
2018,05,27,16,33,20.10
2018,05,27,16,34,20.20
2018,05,27,16,35,20.20
2018,05,27,16,36,20.30
2018,05,27,16,37,20.30
2018,05,27,16,38,20.30
2018,05,27,16,39,20.40
2018,05,27,16,40,20.30
2018,05,27,16,41,20.20
2018,05,27,16,42,20.10
2018,05,27,16,43,20.20
2018,05,27,16,44,20.20
2018,05,27,16,45,20.10
2018,05,27,16,46,20.10
2018,05,27,16,47,20.10
2018,05,27,16,48,20.20
2018,05,27,16,49,20.20
2018,05,27,16,50,20.10
2018,05,27,16,51,20.10
2018,05,27,16,52,20.10
2018,05,27,16,53,20.10
2018,05,27,16,54,20.00
2018,05,27,16,55,20.00
2018,05,27,16,56,20.00
2018,05,27,16,57,20.00
2018,05,27,16,58,20.00
2018,05,27,16,59,20.00
2018,05,27,17,00,20.10
2018,05,27,17,01,20.10
2018,05,27,17,02,20.00
2018,05,27,17,03,20.10
2018,05,27,17,04,20.20
2018,05,27,17,05,20.20
2018,05,27,17,06,20.10
2018,05,27,17,07,20.00
2018,05,27,17,08,19.90
2018,05,27,17,09,19.80
2018,05,27,17,10,19.70
2018,05,27,17,11,19.70
2018,05,27,17,12,19.80
2018,05,27,17,13,19.80
2018,05,27,17,14,19.90
2018,05,27,17,15,19.90
2018,05,27,17,16,19.90
2018,05,27,17,17,19.90
2018,05,27,17,18,19.90
2018,05,27,17,19,19.80
2018,05,27,17,20,19.80
2018,05,27,17,21,19.80
2018,05,27,17,22,19.90
2018,05,27,17,23,19.90
2018,05,27,17,24,19.90
2018,05,27,17,25,19.90
2018,05,27,17,26,20.00
2018,05,27,17,27,20.00
2018,05,27,17,28,20.00
2018,05,27,17,29,20.00
2018,05,27,17,30,20.00
2018,05,27,17,31,20.00
2018,05,27,17,32,19.90
2018,05,27,17,33,19.90
2018,05,27,17,34,19.80
2018,05,27,17,35,19.80
2018,05,27,17,36,19.80
2018,05,27,17,37,19.80
2018,05,27,17,38,19.70